Home   Weather   Broome   Past weeks

Flag for Australia Past Weather in Broome, Western Australia, Australia — Yesterday and Last 2 Weeks

Now
76 °F

Mild.


Feels Like: 77 °F
Forecast: 75 / 85 °F
Wind: 6 mph from Southwest

Location: Broome Airport

Current Time: Sep 25, 2016 at 8:18:49 AM

Latest Report: Sep 25, 2016 at 6:00 AM


Visibility: N/A

Pressure: 29.83 "Hg

Humidity: 81%

Dew Point: 70 °F

Location of BroomeLocation

Past Weather in Broome — Graph

°F

Broome Temperature Yesterday

Maximum temperature yesterday: 84 °F (at 11:00 AM)
Minimum temperature yesterday: 77 °F (at 3:00 AM)
Average temperature yesterday: 80 °F

High & Low Weather Summary for the Past Weeks

 TemperatureHumidityPressure
High95 °F (Sep 18, 3:00 PM)95% (Sep 12, 5:00 AM)29.96 "Hg (Sep 12, 5:00 AM)
Low66 °F (Sep 21, 5:00 AM)10% (Sep 20, 2:00 PM)29.75 "Hg (Sep 24, 3:00 PM)
Average80 °F58%29.86 "Hg
* Reported Sep 10 6:00 AM — Sep 25 6:00 AM, Broome, Weather by CustomWeather, © 2016

Note: Actual official high and low records may vary slightly from our data, if they occured in-between our weather recording intervals... More about our weather records

Advertising

Broome Weather History for the Previous 24 Hours

Scroll right to see more
 ConditionsComfort  
Time TempWeatherWind HumidityBarometerVisibility
6:00 AM
Sun, Sep 25
76 °FMild.6 mph81%29.83 "HgN/A
5:00 AM75 °FMild.6 mph84%29.81 "HgN/A
3:00 AM77 °FMild.6 mph81%29.79 "HgN/A
2:00 AM77 °FMild.7 mph82%29.79 "HgN/A
12:00 AM77 °FWarm.7 mph82%29.81 "HgN/A
11:00 PM
Sat, Sep 24
78 °FWarm.8 mph82%29.83 "HgN/A
9:00 PM78 °FWarm.7 mph82%29.83 "HgN/A
8:00 PM78 °FWarm.7 mph80%29.82 "HgN/A
6:00 PM79 °FWarm.8 mph72%29.78 "HgN/A
5:00 PM81 °FWarm.12 mph66%29.78 "HgN/A
3:00 PM83 °FWarm.14 mph58%29.75 "HgN/A
2:00 PM84 °FWarm.12 mph56%29.77 "HgN/A
12:00 PM83 °FWarm.12 mph58%29.81 "HgN/A
11:00 AM84 °FWarm.10 mph53%29.84 "HgN/A
9:00 AM81 °FWarm.9 mph65%29.88 "HgN/A
8:00 AM79 °FWarm.10 mph76%29.87 "HgN/A
Weather by CustomWeather, © 2016

See weather overviewHow to use our weather pages